Weather History for Stevensville, MD

Change the Weather History Date:

Tuesday, February 26, 2013

  Actual Average (KESN) Record (KESN)
Temperature  
Mean Temperature 39 °F -  
Max Temperature 46 °F 51 °F 69 °F (1977)
Min Temperature 32 °F 28 °F 12 °F (1950)
Degree Days  
Heating Degree Days 26    
Moisture  
Dew Point 36 °F    
Average Humidity 89    
Maximum Humidity 100    
Minimum Humidity 66    
Precipitation  
Precipitation 0.00 in - - ()
Sea Level Pressure  
Sea Level Pressure 30.03 in    
Wind  
Wind Speed 6 mph (East)    
Max Wind Speed 21 mph    
Max Gust Speed 32 mph    
Visibility 7 miles    
Events      
Averages and records for this station are not official NWS values.
T = Trace of Precipitation, MM = Missing Value Source: NWS Daily Summary

Daily Weather History Graph

Daily Weather History Graph

Search for Another Location

Airport:

Trip Planner

Search our weather history database for the weather conditions in past years. The results will help you decide how hot, cold, wet, or windy it might be!

Date:

Astronomy

Feb. 26, 2013 Rise Set
Actual Time 6:41 AM EST 5:55 PM EST
Civil Twilight 6:14 AM EST 6:21 PM EST
Nautical Twilight 5:44 AM EST 6:52 PM EST
Astronomical Twilight 5:13 AM EST 7:23 PM EST
Moon 7:08 PM EST (2/26) 6:44 AM EST (2/26)
Length of Visible Light 12h 07m
Length of Day
11h 13m
Full, 99% of the Moon is Illuminated
Feb 26
Full
Mar 4
Last Quarter
Mar 11
New
Mar 19
First Quarter
Mar 27
Full

Hourly Weather History & Observations

Time (EST) Temp. Windchill Dew Point Humidity Pressure Visibility Wind Dir Wind Speed Gust Speed Precip Events Conditions
12:01 AM 32.0 °F - 30.2 °F 93% 30.23 in 10.0 mi Calm Calm - N/A   Clear
12:21 AM 32.0 °F - 30.2 °F 93% 30.23 in 10.0 mi Calm Calm - N/A   Clear
12:41 AM 32.0 °F - 30.2 °F 93% 30.23 in 10.0 mi Calm Calm - N/A   Clear
1:01 AM 32.0 °F - 30.2 °F 93% 30.22 in 7.0 mi Calm Calm - N/A   Clear
1:21 AM 32.0 °F - 30.2 °F 93% 30.23 in 10.0 mi Calm Calm - N/A   Clear
1:41 AM 32.0 °F - 28.4 °F 87% 30.24 in 10.0 mi Calm Calm - N/A   Clear
2:01 AM 32.0 °F 28.7 °F 30.2 °F 93% 30.24 in 7.0 mi East 3.5 mph - N/A   Clear
2:21 AM 32.0 °F - 30.2 °F 93% 30.24 in 7.0 mi Calm Calm - N/A   Clear
2:42 AM 32.0 °F 28.7 °F 30.2 °F 93% 30.23 in 7.0 mi ENE 3.5 mph - N/A   Clear
3:02 AM 32.0 °F - 30.2 °F 93% 30.21 in 7.0 mi Calm Calm - N/A   Clear
3:22 AM 32.0 °F - 30.2 °F 93% 30.21 in 7.0 mi Calm Calm - N/A   Clear
3:42 AM 32.0 °F - 30.2 °F 93% 30.21 in 7.0 mi Calm Calm - N/A   Clear
4:02 AM 32.0 °F - 30.2 °F 93% 30.21 in 7.0 mi Calm Calm - N/A   Clear
4:22 AM 32.0 °F - 30.2 °F 93% 30.20 in 5.0 mi Calm Calm - N/A   Clear
5:02 AM 32.0 °F 28.7 °F 32.0 °F 100% 30.19 in 5.0 mi East 3.5 mph - N/A   Clear
5:22 AM 32.0 °F - 32.0 °F 100% 30.20 in 5.0 mi Calm Calm - N/A   Clear
5:42 AM 32.0 °F 28.7 °F 32.0 °F 100% 30.20 in 5.0 mi East 3.5 mph - N/A   Clear
6:02 AM 32.0 °F - 32.0 °F 100% 30.20 in 5.0 mi Calm Calm - N/A   Clear
6:22 AM 32.0 °F - 32.0 °F 100% 30.21 in 5.0 mi Calm Calm - N/A   Clear
7:02 AM 32.0 °F 28.7 °F 32.0 °F 100% 30.21 in 5.0 mi ENE 3.5 mph - N/A   Clear
7:22 AM 32.0 °F 28.7 °F 32.0 °F 100% 30.20 in 7.0 mi ENE 3.5 mph - N/A   Clear
7:42 AM 33.8 °F 30.8 °F 32.0 °F 93% 30.20 in 7.0 mi ENE 3.5 mph - N/A   Clear
8:02 AM 33.8 °F 28.6 °F 30.2 °F 87% 30.21 in 7.0 mi East 5.8 mph - N/A   Clear
8:22 AM 33.8 °F 27.7 °F 30.2 °F 87% 30.20 in 10.0 mi ENE 6.9 mph - N/A   Clear
8:42 AM 35.6 °F 29.9 °F 30.2 °F 81% 30.20 in 10.0 mi ENE 6.9 mph - N/A   Clear
9:02 AM 35.6 °F 29.2 °F 30.2 °F 81% 30.20 in 10.0 mi East 8.1 mph - N/A   Clear
10:02 AM 37.4 °F 30.8 °F 30.2 °F 75% 30.20 in 10.0 mi East 9.2 mph - N/A   Clear
10:22 AM 39.2 °F 33.6 °F 30.2 °F 70% 30.19 in 10.0 mi East 8.1 mph - N/A   Clear
10:42 AM 39.2 °F 33.0 °F 32.0 °F 75% 30.17 in 10.0 mi East 9.2 mph - N/A   Clear
11:03 AM 41.0 °F 35.2 °F 32.0 °F 70% 30.17 in 10.0 mi East 9.2 mph - N/A   Scattered Clouds
11:23 AM 41.0 °F 35.2 °F 32.0 °F 70% 30.17 in 10.0 mi East 9.2 mph - N/A   Clear
11:43 AM 42.8 °F 36.6 °F 32.0 °F 66% 30.16 in 10.0 mi East 11.5 mph - N/A   Clear
12:03 PM 42.8 °F 36.6 °F 33.8 °F 70% 30.14 in 10.0 mi East 11.5 mph 18.4 mph N/A   Scattered Clouds
12:23 PM 42.8 °F 36.6 °F 33.8 °F 70% 30.12 in 10.0 mi East 11.5 mph 16.1 mph N/A   Scattered Clouds
12:43 PM 41.0 °F 33.9 °F 35.6 °F 81% 30.11 in 10.0 mi East 12.7 mph 17.3 mph N/A   Mostly Cloudy
1:03 PM 41.0 °F 34.7 °F 35.6 °F 81% 30.10 in 7.0 mi East 10.4 mph - N/A   Overcast
1:23 PM 41.0 °F 33.9 °F 37.4 °F 87% 30.08 in 7.0 mi ENE 12.7 mph 18.4 mph N/A   Overcast
2:03 PM 42.8 °F 36.6 °F 37.4 °F 81% 30.05 in 10.0 mi East 11.5 mph 20.7 mph N/A   Scattered Clouds
2:23 PM 42.8 °F 36.2 °F 37.4 °F 81% 30.04 in 10.0 mi East 12.7 mph 20.7 mph N/A   Mostly Cloudy
2:43 PM 44.6 °F 38.1 °F 37.4 °F 76% 30.03 in 10.0 mi East 13.8 mph 21.9 mph N/A   Mostly Cloudy
3:03 PM 44.6 °F 37.2 °F 37.4 °F 76% 30.01 in 10.0 mi East 17.3 mph 24.2 mph N/A   Mostly Cloudy
3:23 PM 42.8 °F 35.1 °F 37.4 °F 81% 29.99 in 10.0 mi East 16.1 mph 27.6 mph N/A   Mostly Cloudy
3:43 PM 42.8 °F 35.8 °F 37.4 °F 81% 29.98 in 10.0 mi East 13.8 mph 26.5 mph N/A   Mostly Cloudy
4:03 PM 42.8 °F 34.8 °F 37.4 °F 81% 29.96 in 10.0 mi East 17.3 mph 25.3 mph N/A   Mostly Cloudy
4:23 PM 42.8 °F 34.3 °F 37.4 °F 81% 29.94 in 10.0 mi East 19.6 mph 26.5 mph N/A   Mostly Cloudy
4:43 PM 42.8 °F 34.0 °F 37.4 °F 81% 29.92 in 7.0 mi East 20.7 mph 28.8 mph N/A   Overcast
5:03 PM 42.8 °F 34.8 °F 37.4 °F 81% 29.90 in 10.0 mi East 17.3 mph 24.2 mph N/A   Overcast
5:23 PM 42.8 °F 35.1 °F 37.4 °F 81% 29.89 in 5.0 mi East 16.1 mph 23.0 mph N/A   Overcast
5:43 PM 42.8 °F 34.8 °F 37.4 °F 81% 29.88 in 7.0 mi East 17.3 mph 25.3 mph N/A   Overcast
6:03 PM 42.8 °F 34.8 °F 39.2 °F 87% 29.84 in 7.0 mi East 17.3 mph 25.3 mph N/A   Overcast
6:23 PM 42.8 °F 34.5 °F 39.2 °F 87% 29.83 in 10.0 mi East 18.4 mph 26.5 mph N/A   Overcast
6:43 PM 42.8 °F 34.0 °F 41.0 °F 93% 29.81 in 5.0 mi East 20.7 mph 28.8 mph N/A   Overcast
7:03 PM 42.8 °F 35.4 °F 41.0 °F 93% 29.80 in 3.0 mi East 15.0 mph 31.1 mph N/A   Overcast
7:24 PM 42.8 °F 34.8 °F 42.8 °F 100% 29.79 in 2.5 mi East 17.3 mph 27.6 mph N/A   Overcast
7:44 PM 42.8 °F 34.8 °F 42.8 °F 100% 29.78 in 4.0 mi East 17.3 mph 26.5 mph N/A   Overcast
8:04 PM 44.6 °F 36.4 °F 42.8 °F 93% 29.76 in 4.0 mi East 20.7 mph 32.2 mph N/A   Overcast
8:24 PM 42.8 °F 34.8 °F 42.8 °F 100% 29.73 in 3.0 mi East 17.3 mph 31.1 mph N/A   Overcast
8:44 PM 44.6 °F 37.4 °F 42.8 °F 93% 29.71 in 4.0 mi East 16.1 mph 25.3 mph N/A   Overcast
9:04 PM 44.6 °F 37.8 °F 44.6 °F 100% 29.71 in 3.0 mi East 15.0 mph 27.6 mph N/A   Overcast
9:24 PM 44.6 °F 37.8 °F 44.6 °F 100% 29.70 in 3.0 mi East 15.0 mph 25.3 mph N/A   Overcast
9:44 PM 44.6 °F 38.4 °F 44.6 °F 100% 29.68 in 3.0 mi East 12.7 mph 21.9 mph N/A   Overcast
10:04 PM 46.4 °F 42.4 °F 46.4 °F 100% 29.69 in 2.5 mi ENE 8.1 mph 23.0 mph N/A   Overcast
10:24 PM 46.4 °F 40.7 °F 46.4 °F 100% 29.67 in 5.0 mi East 12.7 mph 20.7 mph N/A   Overcast
10:44 PM 46.4 °F 44.3 °F 46.4 °F 100% 29.68 in 10.0 mi NE 4.6 mph - N/A   Overcast
11:04 PM 46.4 °F 39.2 °F 46.4 °F 100% 29.63 in 3.0 mi ENE 18.4 mph 27.6 mph N/A   Overcast
11:24 PM 46.4 °F 40.4 °F 46.4 °F 100% 29.61 in 10.0 mi East 13.8 mph - N/A   Overcast
11:44 PM 46.4 °F 40.4 °F 46.4 °F 100% 29.60 in 10.0 mi East 13.8 mph 19.6 mph N/A   Overcast